COSMOS 1562

Satellite information

Favourite Embed

Satellite Type and Status

PAYLOADIN ORBIT

Key statistics

Satellite COSMOS 1562 at a glance.

Uptime

15180

Days in orbit

Revolutions

≈ 12.5

Per day

Orbit

LEO

Low Earth Orbit

Inclination

74.0

Latest

Satellite identification and parameters

Extended collection of information and parameters for COSMOS 1562.

Object identification

Identified? True

Debris? False

Object name: COSMOS 1562

International designator: 1984-052D

Object number (NORAD): 15001

Object ID (CCSDS): 15001

Country: COMMONWEALTH OF INDEPENDENT STATES (CIS)

Current information (Y/N): Y

RCS size: MEDIUM

Orbital parameters

Period: 115.203 minutes

Inclination: 74.0097 deg

SMA: 7842.788 km

Apoapsis: 1476.229 km

Periapsis: 1453.077 km

RAAN: 195.9295 deg

Eccentricy: 0.00147601

Argument of periapsis: 31.2052 deg

Mean anomaly: 37.6209 deg

Mean motion: 12.49962688 rev/day

Mean motion (dot): 0.00000011 rev/day2

B* drag term: 0.00017552285 1/REarth

Two-line elements (TLE)

Creation date: Dec. 19, 2025, 2:08 a.m.

Reference frame: TEME

Reference center: EARTH

Epoch: Dec. 18, 2025, 11:09 p.m. UTC

TLE line 0: 0 COSMOS 1562

TLE line 1: 1 15001U 84052D 25352.96505873 .00000011 00000-0 17552-3 0 9991

TLE line 2: 2 15001 74.0097 195.9295 0014760 31.2052 37.6209 12.49962688896260

Live tracking on map

Real-time ground track for satellite COSMOS 1562.

In-orbit conjunctions

A list of the most updated potential collisions computed for object COSMOS 1562.

Target Orbit TCA Probability of collision Miss distance Type
DELTA 1 DEB SSO 2025-08-13 14:31:32 0.0001713419 439.0 (m) DEBRIS

Associated space launch

Military communications satellites

COSMOS 1562 was lifted into orbit during the mission ‘Kosmos-3M | Strela-1M 281-288’, on board a Kosmos-3M space rocket.

The launch took place on May 28, 1984, 9:52 p.m. from 132/2.

For more information about the launch, click the button.

Launch to space Kosmos-3M | Strela-1M 281-288
Kosmos-3M | Strela-1M 281-288

Agency: N/A

Status: Launch Successful

Launch date: May 28, 1984, 9:52 p.m. UTC

Rocket: Kosmos-3M

Launch pad: 132/2

Location: Plesetsk Cosmodrome, Russian Federation

...

Latest news about this satellite

There are no fresh news available about this satellite. Check back as we update our databases every day.


Newsletter sign-up

Weekly statistics, charts and insights to help you stay on top of the space industry.